Vertical_Velocity
4 4 1 1 2 0 0 -0 -2 0 -3 -3 -4 -4 -4 -3 -1 1 2 3 1 2 3 3 2 0 -1 -4 -6 -5 -3 3
-1 0 1 -0 -4 -2 -2 -0 0 0 3 4 3 1 -2 -3 -3 -3 -2 -2 1 -0 1 2 -1 2 1 4 0 2 -2 3
-5 -4 -8 -5 -4 -6 -4 -5 -6 -3 -3 -1 -2 -3 -2 -2 -0 2 2 4 1 -4 0 -4 1 -4 1 3 4 5 -1 -2
1 1 1 -1 -2 0 0 1 -0 -1 -2 -1 -1 -4 -7 -6 -1 -12 -3 -1 -2 3 -3 -1 -3 2 -2 -5 -0 2 5 3
-2 -1 -0 -0 1 -0 -2 -5 -3 -1 -4 -6 -5 -6 -3 -4 -4 -7 -6 -9 -9 -5 -5 -5 -4 -3 -1 0 -7 -8 -9 0
-0 -2 -0 3 -2 -2 -4 -2 -0 1 4 9 0 1 0 -3 -1 -1 -2 -4 -3 -3 -5 1 -4 -3 -2 -4 -0 -7 -12 -10
2 2 -2 -3 0 2 2 -1 -2 2 7 9 8 3 4 3 4 -1 -1 -2 -3 -4 -0 2 3 2 2 3 6 6 6 -0
-4 -4 -2 0 -1 0 1 3 2 -2 5 5 1 2 -0 2 3 -1 -1 -2 -0 -1 1 -1 -2 1 6 5 1 7 10 4
-3 -4 -3 -4 -0 -2 0 -1 0 3 1 1 2 3 6 0 4 5 4 3 2 3 0 -2 0 -3 -6 -5 -1 2 5 6
-0 -1 -0 -3 -1 -2 1 -1 1 2 2 2 -1 4 -1 -1 -2 0 1 3 1 -0 1 1 3 5 4 1 -0 -0 -6 -2
-3 -3 -1 -1 -1 -1 0 1 -1 1 1 4 4 1 2 2 1 -0 -0 -1 -1 -0 -0 -2 -2 -2 -2 -4 -4 -1 -6 -0
-3 -4 -4 -2 -2 2 4 3 1 -0 -1 1 4 2 1 2 1 1 -0 1 0 -1 -4 -3 -2 -3 -1 -3 -5 -7 -7 -6
-5 3 7 1 3 0 -0 -0 -1 1 -0 1 -1 0 1 1 -1 -1 0 -2 -2 -4 -3 -3 -1 -1 -4 -5 -5 -2 -9 -6
-1 1 2 1 1 -1 -1 -0 -1 1 -0 3 2 0 0 -1 -0 -0 -1 -4 -3 -3 -7 -5 -5 -4 -4 -3 -7 -4 -2 -3
2 -0 1 4 3 1 0 0 -1 -0 -0 0 1 1 1 0 0 -1 -3 -3 -4 -3 0 -3 -2 -3 -1 -1 -5 -3 -4 -4
-0 -4 -3 -4 -1 -0 -1 -3 -1 -0 1 2 -1 1 -0 0 -0 0 0 0 0 0 -1 1 -3 -1 -2 -1 -3 -5 -5 -2
-0 -0 2 1 0 -1 -3 -1 2 -0 2 0 1 2 -0 -1 1 -1 1 1 2 1 1 -3 1 -1 0 -5 -5 -5 -1 -2
0 2 0 3 2 1 -1 -4 -1 -0 -0 -1 1 -1 1 -1 -1 -1 1 2 -0 0 0 -4 -4 0 -5 -2 -2 -0 -0 2
1 -2 3 1 -0 -2 -2 -0 -1 -2 1 -1 -2 -0 0 -1 0 -0 1 -0 -1 1 0 -2 -6 4 -1 1 -1 0 2 3
Height
5766 5763 5761 5757 5754 5750 5747 5744 5741 5738 5735 5730 5726 5723 5718 5714 5709 5705 5702 5701 5698 5696 5693 5692 5690 5688 5687 5686 5684 5683 5683 5685
5760 5756 5753 5748 5744 5741 5738 5735 5731 5727 5722 5718 5713 5709 5706 5702 5698 5694 5689 5687 5685 5682 5680 5678 5677 5676 5674 5673 5672 5670 5669 5671
5754 5750 5746 5743 5739 5736 5730 5726 5722 5717 5712 5707 5702 5697 5692 5688 5684 5681 5677 5673 5669 5666 5665 5663 5661 5660 5659 5657 5656 5656 5654 5655
5749 5745 5741 5736 5732 5727 5722 5717 5712 5708 5703 5696 5689 5683 5678 5674 5670 5665 5662 5658 5653 5649 5647 5645 5643 5642 5640 5640 5638 5637 5637 5635
5741 5736 5732 5728 5722 5717 5712 5706 5700 5694 5688 5681 5676 5670 5664 5659 5655 5651 5645 5641 5636 5631 5628 5626 5624 5621 5619 5617 5616 5617 5616 5616
5735 5729 5724 5718 5714 5709 5703 5695 5689 5682 5676 5668 5661 5655 5649 5642 5637 5632 5628 5624 5620 5615 5608 5603 5603 5603 5601 5599 5597 5596 5594 5595
5731 5725 5719 5712 5706 5699 5692 5685 5678 5670 5662 5654 5646 5639 5631 5626 5620 5614 5609 5604 5600 5595 5591 5587 5582 5579 5577 5579 5580 5579 5576 5573
5723 5716 5710 5703 5696 5688 5680 5672 5663 5655 5646 5639 5632 5623 5615 5609 5603 5596 5591 5585 5580 5575 5571 5567 5562 5559 5556 5553 5552 5553 5552 5552
5712 5705 5697 5690 5682 5674 5665 5656 5647 5638 5629 5621 5612 5603 5595 5589 5583 5576 5570 5565 5562 5557 5553 5548 5544 5540 5536 5530 5526 5525 5524 5525
5700 5692 5684 5677 5668 5659 5650 5640 5630 5620 5611 5600 5592 5584 5577 5569 5563 5556 5549 5544 5540 5536 5532 5527 5522 5518 5511 5505 5503 5498 5493 5494
5687 5679 5671 5663 5654 5644 5635 5624 5613 5603 5593 5582 5573 5565 5557 5550 5542 5536 5529 5524 5519 5514 5509 5504 5499 5494 5488 5482 5478 5474 5468 5466
5675 5665 5656 5648 5639 5629 5618 5607 5595 5585 5575 5566 5557 5548 5540 5533 5525 5518 5512 5507 5501 5496 5490 5485 5478 5470 5462 5455 5451 5447 5440 5437
5662 5654 5645 5634 5623 5612 5601 5589 5578 5568 5558 5548 5540 5531 5524 5517 5509 5502 5496 5490 5484 5477 5469 5462 5454 5447 5440 5431 5426 5420 5413 5408
5646 5637 5627 5616 5606 5595 5583 5572 5561 5551 5541 5532 5524 5516 5508 5501 5493 5487 5479 5472 5466 5457 5448 5439 5431 5423 5415 5406 5397 5391 5385 5381
5631 5621 5611 5600 5589 5577 5566 5555 5544 5534 5525 5515 5507 5500 5493 5485 5477 5470 5462 5454 5446 5435 5426 5417 5407 5397 5386 5377 5370 5366 5363 5361
5614 5604 5593 5582 5571 5560 5548 5537 5527 5518 5509 5500 5492 5484 5477 5469 5462 5453 5444 5434 5424 5413 5403 5392 5380 5368 5362 5356 5352 5350 5349 5348
5597 5587 5576 5564 5553 5542 5531 5521 5511 5502 5494 5485 5477 5470 5462 5454 5446 5436 5426 5415 5403 5391 5378 5366 5358 5351 5345 5342 5341 5339 5338 5336
5581 5570 5559 5549 5537 5525 5514 5504 5495 5487 5478 5471 5464 5456 5448 5439 5429 5417 5405 5394 5382 5368 5356 5348 5343 5339 5336 5333 5331 5329 5327 5326
5564 5554 5543 5532 5521 5510 5499 5488 5479 5471 5464 5457 5449 5441 5433 5422 5409 5398 5386 5373 5361 5350 5343 5336 5333 5332 5328 5325 5323 5320 5317 5315